Regional Weather Roundup
Issued by NWS

Home | Current Version | Previous Version | Graphics & Text | Print | Product List | Glossary On
Versions: 1 2 3 4 5 6 7 8 9 10 11 12 13 14 15 16 17 18 19 20 21 22 23 24 25 26 27 28 29 30 31 32 33 34 35 36 37 38 39 40 41 42 43 44 45 46 47 48 49 50
000
ASUS43 KMKX 261621
RWRWI

WISCONSIN REGIONAL WEATHER ROUNDUP
NATIONAL WEATHER SERVICE MILWAUKEE/SULLIVAN WI
1000 AM CST THU FEB 26 2015

NOTE: "FAIR" INDICATES FEW OR NO CLOUDS BELOW 12,000 FEET WITH NO
SIGNIFICANT WEATHER AND/OR OBSTRUCTIONS TO VISIBILITY.

WIZ001-002-006>008-014>016-023>028-261700-
NORTHWEST WISCONSIN

CITY           SKY/WX    TMP DP  RH WIND       PRES   REMARKS
SUPERIOR ARPT  SUNNY      0 -12  55 W3        30.46S
ASHLAND        PTSUNNY    4  -7  60 N6        30.41R WCI  -7
HAYWARD        SUNNY      0  -9  65 N8        30.36S WCI -14
SIREN          SUNNY      1 -12  54 NW3       30.42S
CUMBERLAND     SUNNY      0 -11  60 N7        30.37R WCI -13
RICE LAKE      SUNNY      0 -10  61 NW5       30.41R WCI -10
CHETEK         SUNNY      0 -10  63 NW6       30.39R WCI -12
LADYSMITH      MOSUNNY    1  -6  71 NW6       30.36S HAZE    WCI -10
EAU CLAIRE     SUNNY      3  -8  60 N7        30.39R WCI  -9
MENOMONIE      SUNNY      3  -9  56 NW6       30.41R WCI  -8
NEW RICHMOND   SUNNY      0 -11  60 N7        30.42S WCI -13
OSCEOLA        SUNNY     -1 -11  61 NW6       30.47S WCI -12
$$

WIZ003>005-009-010-017-018-261700-
NORTH CENTRAL WISCONSIN

CITY           SKY/WX    TMP DP  RH WIND       PRES   REMARKS
MANITOWISH WTR CLOUDY     0 -10  63 N7        30.27R WCI -13
ARBOR VITAE    MOSUNNY    1  -7  67 N10       30.27R WCI -14
WOODRUFF       MOSUNNY    1  -7  67 N10       30.27R WCI -14
RHINELANDER    PTSUNNY    1  -8  66 CALM      30.26R
EAGLE RIVER    MOSUNNY   -1 -11  61 NW10      30.25S WCI -17
LAND O LAKES   CLOUDY    -1 -10  65 N10       30.26R WCI -17
PHILLIPS       PTSUNNY   -1  -8  69 N3        30.29S
TOMAHAWK       SUNNY      1 -10  61 N10       30.29R WCI -16
MEDFORD        SUNNY      1  -8  65 N8        30.29R WCI -13
MERRILL        SUNNY      2  -8  61 NE7       30.29R WCI -10
$$

WIZ029-030-035-036-043>047-261700-
CENTRAL WISCONSIN

CITY           SKY/WX    TMP DP  RH WIND       PRES   REMARKS
WAUSAU         SUNNY      2  -7  66 N5        30.29R WCI  -8
MOSINEE        SUNNY      1  -6  71 N6        30.31R WCI -10
MARSHFIELD     SUNNY      3  -8  60 NW7       30.30S WCI  -9
STEVENS POINT  SUNNY      2  -8  62 N7        30.31S WCI -11
WAUPACA        SUNNY      7  -5  56 N5        30.34R WCI  -2
WAUTOMA        SUNNY      6  -7  55 N9        30.33R WCI  -8
WISC RAPIDS    SUNNY      5  -7  57 N6        30.34R WCI  -6
CAMP DOUGLAS   SUNNY      9  -4  56 N8        30.34R WCI  -4
$$

WIZ011>013-019>022-031-037>040-048>050-261700-
NORTHEAST WISCONSIN

CITY           SKY/WX    TMP DP  RH WIND       PRES   REMARKS
ANTIGO         SUNNY     -5 -10  77 S3        30.26R
SHAWANO        MOSUNNY    8  -4  57 NE5       30.33S WCI  -1
OCONTO         SUNNY      5  -6  60 N8        30.34S WCI  -9
STURGEON BAY   SUNNY      3  -6  66 N16       30.33R WCI -16
GREEN BAY      SUNNY      7  -6  55 N13       30.33R WCI  -9
MANITOWOC      SUNNY      7  -5  57 N18       30.30R WCI -12
APPLETON       SUNNY      5  -8  56 N10       30.31R WCI -10
CLINTONVILLE   SUNNY      5  -6  61 NE6       30.33R WCI  -6
OSHKOSH        SUNNY      7  -7  52 NE14      30.31R WCI -10
$$

WIZ032>034-041-042-053>061-261700-
SOUTHWEST WISCONSIN

CITY           SKY/WX    TMP DP  RH WIND       PRES   REMARKS
LA CROSSE      SUNNY      6  -6  57 NW9       30.40R WCI  -8
SPARTA         SUNNY      6  -5  60 N5        30.37R WCI  -3
VIROQUA        SUNNY      4  -6  61 N6        30.30R WCI  -6
BOSCOBEL       SUNNY      9  -8  46 NE7       30.36R WCI  -2
PRAIRIE DU CHI SUNNY      7  -9  48 NW8       30.37R WCI  -6
PLATTEVILLE    SUNNY      4  -4  67 N10       30.29R WCI -11
$$

WIZ056-057-062-063-064-067-068-261700-
SOUTH CENTRAL WISCONSIN

CITY           SKY/WX    TMP DP  RH WIND       PRES   REMARKS
REEDSBURG      SUNNY      4  -7  60 N8        30.32S WCI  -9
BARABOO/DELLS  SUNNY      5  -8  57 NE7       30.31R WCI  -7
LONE ROCK      SUNNY      7  -7  52 NE8       30.34S WCI  -6
MINERAL POINT  SUNNY      9  -6  52 N8        30.27R WCI  -4
MADISON        MOSUNNY    5  -6  60 N13       30.30R WCI -12
MIDDLETON      SUNNY      7  -6  55 NE8       30.31R WCI  -6
WATERTOWN      SUNNY      6  -3  65 N12       30.28R WCI  -9
MONROE         SUNNY      7  -4  61 N16       30.25R WCI -11
JANESVILLE     MOSUNNY   10  -6  48 N10       30.27R WCI  -3
$$

WIZ051-052-058>065-066-070>072-261700-
SOUTHEAST WISCONSIN

CITY           SKY/WX    TMP DP  RH WIND       PRES   REMARKS
MILWAUKEE      PTSUNNY   11   0  61 N9        30.25R WCI  -2
WAUKESHA       MOSUNNY    9  -4  56 NW9       30.25S WCI  -5
MILWAUKEE/TIMM SUNNY      9  -2  61 N12       30.26S WCI  -6
RACINE         CLOUDY    13   6  74 N12       30.25S HAZE    WCI  -1
BURLINGTON     CLOUDY    11  -3  52 N12       30.24R WCI  -3
KENOSHA        MOSUNNY   12   4  70 N10       30.23R WCI  -1
FOND DU LAC    SUNNY      6  -6  57 N16       30.31R WCI -12
SHEBOYGAN      SUNNY      8  -7  50 N15G23    30.27S WCI  -9
WEST BEND      SUNNY      9  -4  56 N10       30.26R WCI  -6
JUNEAU         SUNNY      6  -4  62 N14       30.28S WCI -10
$$

LSZ147-162-261700-
LAKE SUPERIOR

STATION/POSITION TIME  TEMP    WIND        PRES    WAVE
                       AIR SEA DIR/SP/G            HT/PER
                 (UTC) (F)     (DEG/KT/KT) (MB)    (FT/S)
DEVILS ISLAND    1600    1     330/ 10/ 11 1032.1R
PORT WING        1500    3     340/  8/ 10 1030.1R
SAXON HARBOR     1500    2        CALM     1029.1
$$

LMZ867-665-643>646-261700-
LAKE MICHIGAN

STATION/POSITION TIME  TEMP    WIND        PRES    WAVE
                       AIR SEA DIR/SP/G            HT/PER
                 (UTC) (F)     (DEG/KT/KT) (MB)    (FT/S)
NORTHPORT PIER   1519    3     340/ 12/ 15 1026.8R
SISTER BAY       1413    3      10/ 10/ 12   N/A
KEWAUNEE LAKESHO 1600    5     350/  9/ 15 1025.4R
SHEBOYGAN LAKESH 1600    8     350/ 18/ 21 1027.2R
PORT WASHINGTON  1500    7     330/ 11/ 17 1025.7R
MILWAUKEE LAKESH 1600   11     350/ 13/ 17   N/A
KENOSHA   LAKESH 1600   12     340/ 13/ 17 1023.7R
$$

TC  - TEMPERATURE IN CELSIUS
VSB - VISIBILITY IN STATUTE MILES
WCI - WIND CHILL INDEX
HX  - HEAT INDEX



USA.gov is the U.S. government's official web portal to all federal, state and local government web resources and services.